sat.trackr.live / text

‹ back to catalog

YAOGAN-30 11C

NORAD 49029 · 2021-065D

PAYLOAD ACTIVE UNKNOWN

§ Identity

Operator
Country
PRC
Launch date
2021-07-19
Launch site
XICLF
Launch vehicle
Mass (kg)
RCS (m²)

External: N2YO · Heavens-Above · Gunter

§ Orbital elements

Epoch: 2026-05-25T03:43:45.717600Z

Period
95.84 min
Inclination
34.9953°
Eccentricity
0.0002776
Mean motion
15.02556501 rev/d
Perigee alt
557.1 km
Apogee alt
560.9 km
Semi-major
6,937.2 km
B*
1.8629e-4
RAAN
53.0071°
Arg perigee
59.0437°
Mean anomaly
301.0544°
Rev number
26,519

§ Raw data

YAOGAN-30 11C1 49029U 21065D   26145.15539025  .00002499  00000+0  18629-3 0  99982 49029  34.9953  53.0071 0002776  59.0437 301.0544 15.02556501265195

JSON: /api/v1/satellites/49029 · /tle

For live sub-satellite position, see the globe view (requires WebGL).

§ Visibility from observer

Set your observer location to see the next 7 days of passes ≥ 10°. The values pass through the URL so the page stays shareable.

No JS? Fill the form by hand. The geolocation button needs JavaScript.